Location: Peterborough
(44.3091°N, 78.3197°W)
Time: 05:07:30
(UTC-04:00)

Tiros 1 despin weight - Pass Details

Date: 25 March 2023
Orbit: 586 x 632 km, 48.2° (Epoch: 08 June)

Event Time Altitude Azimuth Distance (km) Brightness Sun altitude
Rises 20:12:47 0° 186° (S) 2,792 ? -8.1°
Reaches altitude 10° 20:16:30 10° 153° (SSE) 1,899 ? -8.8°
Maximum altitude 20:18:00 12° 133° (SE) 1,798 ? -9.0°
Enters shadow 20:18:59 11° 119° (ESE) 1,845 ? -9.2°
Drops below altitude 10° 20:19:31 10° 112° (ESE) 1,907 - -9.3°
Sets 20:23:15 0° 80° (E) 2,820 - -9.9°
